THORAD AGENA D DEB, 4738

Orbit data source: Space-Track

THORAD AGENA D DEB, 4738 is space debris in SSO originally from a launch on Wed, 08 Apr 1970 UTC launched from the Air Force Western Test Range (AFWTR). Debris objects in space refer to the collection of defunct objects orbiting the Earth. Examples of debris include non-operational satellites, rocket bodies, and fragments generated from explosions, collisions, or faulty payload assembly.

Loading next visibility...
Identifier
4738, 1970-025CM
Orbit
SSO
Country
Flag of USUS
Related business
Manufacturer
Unknown
Mission
Spacecraft
Bus & Motor
Unknown
Mass
Unknown
Launch date (UTC)
1970-04-08 (56 years ago)
Launch vehicle
Unknown
Launch site
Air Force Western Test Range (AFWTR)
Object type
Payload
Rocket body
Debris
Shape & HBR
Unknown shape, 0.1 m
Radar Cross Section
Medium (>0.1 m² and <1 m²)

Expand to show TLE details & history
Last TLE update: 2 days ago

TLE from 2 days ago
0 THORAD AGENA D DEB
1  4738U 70025CM  26171.45583279  .00001296  00000-0  66475-3 0  9995
2  4738 100.1070 176.1228 0043743 265.4541  94.1632 14.17125744840809
Epoch: 2026-06-20T10:56Z
TLE epoch observation values (Epoch: 2026-06-20T10:56:23.953Z)
Latitude
0.00004°
Longitude
103.35279°
Altitude
840.38 km
Speed
7.431 km/s
True Right ascension
11h 44m 29s
True Declination
0° 00' 00"
Sunlit
Object was in daylight at epoch
Visualization orbit readout
Latitude
Unknown
Longitude
Unknown
Altitude
Unknown
Speed
Unknown
Apparent Right ascension
Unknown
Apparent Declination
Unknown
Sunlit
N/A
Visualization observer readout
Local Sidereal Time
23:20:06
Azimuth
Unknown
Elevation
Unknown
Doppler factor
Unknown
Orbital elements
Apogee altitude
863.865 km
Perigee altitude
800.783 km
Semi-major axis
7,210.461 km
Eccentricity
0.00437
Inclination
100.107°
RAAN
176.1228°
Arg. of periapsis
265.4541°
True anomaly
94.66293°
Mean anomaly
94.1632°
Eccentric anomaly
94.41309°
Mean motion
3.54486 °/min
Orbital period
101.56 mins
BSTAR
0.00066475
Loading maneuver chart data...
Computing Atmospheric mass density...

Documentation

Showing up to 5 results
|